KE4LOJ Weather Reports


time (UTC)temp
C
wind
direction
speed
KPH
gust
KPH
rain 1hr
cm
rain 24hr
cm
rain mn
cm
humidity
%
barometer
mb
20260505194526 27 132 3.2 9.7 0.00 0.00 0.00 52 1016.0
20260505194022 28 105 4.8 11.3 0.00 0.00 0.00 51 1016.1
20260505193519 27 77 4.8 6.4 0.00 0.00 0.00 52 1016.1
20260505193017 27 99 1.6 4.8 0.00 0.00 0.00 53 1016.1
20260505192515 27 141 9.7 11.3 0.00 0.00 0.00 52 1016.0
20260505192012 27 128 4.8 6.4 0.00 0.00 0.00 50 1016.1
20260505191510 27 163 3.2 11.3 0.00 0.00 0.00 51 1016.1
20260505191008 28 162 3.2 6.4 0.00 0.00 0.00 49 1016.2
20260505190502 28 52 3.2 3.2 0.00 0.00 0.00 49 1016.2
20260505185958 27 75 4.8 9.7 0.00 0.00 0.00 51 1016.3
20260505185456 28 144 8.0 12.9 0.00 0.00 0.00 49 1016.2
20260505184952 28 164 6.4 14.5 0.00 0.00 0.00 47 1016.2
20260505184449 28 71 1.6 4.8 0.00 0.00 0.00 47 1016.4
20260505183945 28 112 1.6 4.8 0.00 0.00 0.00 49 1016.4
20260505183442 28 135 1.6 9.7 0.00 0.00 0.00 48 1016.6
20260505182939 28 163 3.2 11.3 0.00 0.00 0.00 48 1016.4
20260505182436 28 126 6.4 16.1 0.00 0.00 0.00 50 1016.5
20260505181932 27 177 3.2 9.7 0.00 0.00 0.00 50 1016.7
20260505181430 28 262 4.8 6.4 0.00 0.00 0.00 49 1016.7
20260505180926 28 160 6.4 9.7 0.00 0.00 0.00 51 1016.8
20260505180423 28 175 6.4 14.5 0.00 0.00 0.00 51 1017.1
20260505175919 28 180 3.2 11.3 0.00 0.00 0.00 50 1017.0
20260505175416 27 194 6.4 11.3 0.00 0.00 0.00 52 1017.0
20260505174912 27 121 1.6 11.3 0.00 0.00 0.00 51 1017.1
20260505174410 27 112 3.2 4.8 0.00 0.00 0.00 50 1016.8
20260505173906 27 97 1.6 4.8 0.00 0.00 0.00 51 1017.0
20260505173402 27 127 3.2 3.2 0.00 0.00 0.00 50 1017.1
20260505172859 27 157 4.8 6.4 0.00 0.00 0.00 49 1017.0
20260505172357 28 172 8.0 9.7 0.00 0.00 0.00 48 1017.0
20260505171856 27 180 6.4 14.5 0.00 0.00 0.00 51 1017.2
20260505171354 27 103 3.2 6.4 0.00 0.00 0.00 49 1017.2
20260505170850 26 135 6.4 9.7 0.00 0.00 0.00 53 1017.1
20260505170347 26 117 1.6 3.2 0.00 0.00 0.00 53 1017.4
20260505165842 26 119 0.0 1.6 0.00 0.00 0.00 53 1017.3
20260505165338 26 56 3.2 6.4 0.00 0.00 0.00 53 1017.2
20260505164834 26 99 1.6 4.8 0.00 0.00 0.00 52 1017.2
20260505164331 27 128 1.6 6.4 0.00 0.00 0.00 52 1017.2
20260505163829 26 86 4.8 6.4 0.00 0.00 0.00 53 1017.4
20260505163328 26 127 3.2 4.8 0.00 0.00 0.00 53 1017.3
20260505162826 26 95 3.2 6.4 0.00 0.00 0.00 55 1017.3
20260505162321 26 91 3.2 4.8 0.00 0.00 0.00 55 1017.2
20260505161819 26 82 6.4 6.4 0.00 0.00 0.00 55 1017.3
20260505161316 26 122 0.0 3.2 0.00 0.00 0.00 56 1017.3
20260505160813 26 98 0.0 4.8 0.00 0.00 0.00 56 1017.3
20260505160311 27 132 4.8 11.3 0.00 0.00 0.00 54 1017.1
20260505153250 26 111 1.6 6.4 0.00 0.00 0.00 56 1017.3
20260505152747 27 151 3.2 9.7 0.00 0.00 0.00 54 1017.4
20260505152243 27 113 3.2 6.4 0.00 0.00 0.00 53 1017.2
20260505151737 27 115 3.2 9.7 0.00 0.00 0.00 55 1017.3
20260505151235 26 136 1.6 6.4 0.00 0.00 0.00 56 1017.3
20260505150733 27 129 1.6 9.7 0.00 0.00 0.00 56 1017.3
20260505150230 26 130 3.2 9.7 0.00 0.00 0.00 60 1017.3
20260505140200 25 177 6.4 11.3 0.00 0.00 0.00 69 1017.1
20260505130124 23 164 3.2 4.8 0.00 0.00 0.00 76 1017.1
20260505124613 22 127 8.0 11.3 0.00 0.00 0.00 77 1016.9
20260505124109 22 127 4.8 11.3 0.00 0.00 0.00 78 1016.9
20260505123605 22 153 1.6 9.7 0.00 0.00 0.00 79 1017.1
20260505123102 21 156 1.6 3.2 0.00 0.00 0.00 81 1017.1
20260505122559 21 115 0.0 4.8 0.00 0.00 0.00 82 1017.1
20260505122056 21 121 0.0 1.6 0.00 0.00 0.00 82 1016.9
20260505121552 21 161 0.0 0.0 0.00 0.00 0.00 82 1016.8
20260505121049 21 133 1.6 3.2 0.00 0.00 0.00 84 1017.0
20260505120546 20 123 0.0 3.2 0.00 0.00 0.00 85 1016.8
20260505120041 20 154 3.2 4.8 0.00 0.00 0.00 83 1016.8
20260505115536 20 119 0.0 1.6 0.00 0.00 0.00 84 1016.8
20260505115034 20 118 0.0 0.0 0.00 0.00 0.00 87 1016.8
20260505114531 19 118 0.0 0.0 0.00 0.00 0.00 89 1016.8
20260505114027 18 117 0.0 0.0 0.00 0.00 0.00 91 1016.8
20260505113524 18 108 0.0 0.0 0.00 0.00 0.00 91 1016.6
20260505113020 18 108 0.0 0.0 0.00 0.00 0.00 92 1016.5
20260505112517 17 108 0.0 0.0 0.00 0.00 0.00 92 1016.4
20260505112015 17 107 0.0 0.0 0.00 0.00 0.00 93 1016.3
20260505111514 17 106 0.0 0.0 0.00 0.00 0.00 93 1016.2
20260505111010 17 130 0.0 0.0 0.00 0.00 0.00 93 1016.1
20260505110507 17 130 0.0 0.0 0.00 0.00 0.00 94 1015.9
20260505101939 16 130 0.0 0.0 0.00 0.00 0.00 94 1015.9
20260505101438 16 130 0.0 0.0 0.00 0.00 0.00 94 1015.7
20260505100934 16 130 0.0 0.0 0.00 0.00 0.00 94 1015.9
20260505100431 16 130 0.0 0.0 0.00 0.00 0.00 94 1015.9
20260505095927 16 130 0.0 0.0 0.00 0.00 0.00 94 1015.8
20260505095424 16 130 0.0 0.0 0.00 0.00 0.00 94 1015.8
20260505094920 16 130 0.0 0.0 0.00 0.00 0.00 94 1015.7
20260505094417 16 130 0.0 0.0 0.00 0.00 0.00 94 1015.6
20260505093913 16 130 0.0 0.0 0.00 0.00 0.00 95 1015.8
20260505093410 16 131 0.0 0.0 0.00 0.00 0.00 95 1015.7
20260505092908 16 131 0.0 0.0 0.00 0.00 0.00 95 1015.5
20260505092406 16 131 0.0 0.0 0.00 0.00 0.00 95 1015.5
20260505091902 16 131 0.0 0.0 0.00 0.00 0.00 95 1015.6
20260505091400 16 132 0.0 0.0 0.00 0.00 0.00 95 1015.3
20260505090858 16 132 0.0 0.0 0.00 0.00 0.00 95 1015.5
20260505090356 16 132 0.0 0.0 0.00 0.00 0.00 94 1015.5
20260505085853 16 132 0.0 0.0 0.00 0.00 0.00 94 1015.4
20260505085351 16 132 0.0 0.0 0.00 0.00 0.00 94 1015.6
20260505084849 16 132 0.0 0.0 0.00 0.00 0.00 94 1015.6
20260505084347 16 132 0.0 0.0 0.00 0.00 0.00 94 1015.3
20260505083844 16 132 0.0 0.0 0.00 0.00 0.00 94 1015.3
20260505083342 16 132 0.0 0.0 0.00 0.00 0.00 94 1015.5
20260505082838 16 132 0.0 0.0 0.00 0.00 0.00 94 1015.1
20260505082334 16 132 0.0 0.0 0.00 0.00 0.00 93 1015.4
20260505081831 16 132 0.0 0.0 0.00 0.00 0.00 93 1015.2
20260505081327 16 132 0.0 0.0 0.00 0.00 0.00 93 1015.3
20260505080824 16 132 0.0 0.0 0.00 0.00 0.00 93 1015.5
20260505080320 16 132 0.0 0.0 0.00 0.00 0.00 93 1015.3
20260505075815 16 132 0.0 0.0 0.00 0.00 0.00 93 1015.4
20260505075313 16 132 0.0 0.0 0.00 0.00 0.00 93 1015.3
20260505074810 16 132 0.0 0.0 0.00 0.00 0.00 93 1015.4
20260505074307 16 132 0.0 0.0 0.00 0.00 0.00 92 1015.5
20260505073804 16 132 0.0 0.0 0.00 0.00 0.00 92 1015.5
20260505073302 16 133 0.0 0.0 0.00 0.00 0.00 92 1015.7
20260505072759 16 132 0.0 0.0 0.00 0.00 0.00 92 1015.6
20260505072255 16 132 0.0 0.0 0.00 0.00 0.00 92 1015.4
20260505071751 16 133 0.0 0.0 0.00 0.00 0.00 92 1015.6
20260505071247 16 133 0.0 0.0 0.00 0.00 0.00 91 1015.4
20260505070745 16 133 0.0 0.0 0.00 0.00 0.00 91 1015.6
20260505070241 17 133 0.0 0.0 0.00 0.00 0.00 91 1015.6
20260505065737 17 133 0.0 0.0 0.00 0.00 0.00 91 1015.9
20260505065234 17 132 0.0 0.0 0.00 0.00 0.00 90 1015.8
20260505064731 17 132 0.0 0.0 0.00 0.00 0.00 90 1015.9
20260505064229 17 132 0.0 0.0 0.00 0.00 0.00 90 1015.8
20260505063726 17 132 0.0 0.0 0.00 0.00 0.00 89 1016.0
20260505063222 17 132 0.0 0.0 0.00 0.00 0.00 89 1016.1
20260505062719 17 132 0.0 0.0 0.00 0.00 0.00 89 1015.9
20260505062217 17 133 0.0 0.0 0.00 0.00 0.00 89 1015.8
20260505061713 17 132 0.0 0.0 0.00 0.00 0.00 89 1016.0
20260505061211 17 132 0.0 0.0 0.00 0.00 0.00 89 1015.9
20260505060708 17 132 0.0 0.0 0.00 0.00 0.00 89 1016.0
20260505060205 17 132 0.0 0.0 0.00 0.00 0.00 88 1016.1
20260505055700 17 132 0.0 0.0 0.00 0.00 0.00 88 1016.0
20260505055157 17 132 0.0 0.0 0.00 0.00 0.00 87 1016.2
20260505054654 17 132 0.0 0.0 0.00 0.00 0.00 87 1016.1
20260505054152 17 132 0.0 0.0 0.00 0.00 0.00 87 1016.3
20260505053650 17 133 0.0 0.0 0.00 0.00 0.00 87 1016.5
20260505053146 17 132 0.0 0.0 0.00 0.00 0.00 86 1016.5
20260505052643 18 132 0.0 0.0 0.00 0.00 0.00 86 1016.4
20260505052140 18 132 0.0 0.0 0.00 0.00 0.00 85 1016.5
20260505051637 18 132 0.0 0.0 0.00 0.00 0.00 85 1016.6
20260505051136 18 132 0.0 0.0 0.00 0.00 0.00 84 1016.8
20260505050633 18 132 0.0 0.0 0.00 0.00 0.00 83 1016.8
20260505050131 18 132 0.0 0.0 0.00 0.00 0.00 83 1016.8
20260505041601 19 149 3.2 3.2 0.00 0.00 0.00 80 1016.9
20260505041058 19 127 0.0 4.8 0.00 0.00 0.00 80 1017.0
20260505040555 19 121 0.0 3.2 0.00 0.00 0.00 80 1016.8
20260505040052 19 127 1.6 3.2 0.00 0.00 0.00 79 1016.8
20260505035549 19 167 4.8 4.8 0.00 0.00 0.00 79 1016.9
20260505035045 19 120 3.2 4.8 0.00 0.00 0.00 79 1017.1
20260505034542 20 151 3.2 3.2 0.00 0.00 0.00 79 1017.1
20260505034039 19 132 0.0 3.2 0.00 0.00 0.00 80 1017.2
20260505033536 19 136 0.0 3.2 0.00 0.00 0.00 79 1017.3
20260505033034 20 121 0.0 0.0 0.00 0.00 0.00 79 1017.1
20260505032531 20 132 0.0 0.0 0.00 0.00 0.00 79 1017.4
20260505032028 20 128 0.0 0.0 0.00 0.00 0.00 79 1017.4
20260505031525 20 120 0.0 0.0 0.00 0.00 0.00 78 1017.5
20260505031021 20 126 0.0 0.0 0.00 0.00 0.00 78 1017.4
20260505030518 20 141 1.6 1.6 0.00 0.00 0.00 78 1017.4
20260505030014 20 114 0.0 0.0 0.00 0.00 0.00 78 1017.4
20260505025510 20 118 0.0 0.0 0.00 0.00 0.00 78 1017.3
20260505025010 20 124 0.0 0.0 0.00 0.00 0.00 78 1017.4
20260505024506 20 150 1.6 3.2 0.00 0.00 0.00 77 1017.6
20260505024003 20 130 0.0 3.2 0.00 0.00 0.00 77 1017.4
20260505023500 20 127 0.0 0.0 0.00 0.00 0.00 77 1017.4
20260505022957 20 128 0.0 0.0 0.00 0.00 0.00 76 1017.5
20260505022455 20 132 0.0 0.0 0.00 0.00 0.00 76 1017.5
20260505021952 20 123 0.0 1.6 0.00 0.00 0.00 76 1017.6
20260505021448 20 167 1.6 3.2 0.00 0.00 0.00 75 1017.4
20260505020944 20 135 0.0 0.0 0.00 0.00 0.00 75 1017.4
20260505020439 20 148 3.2 3.2 0.00 0.00 0.00 75 1017.4
20260505015937 20 131 0.0 1.6 0.00 0.00 0.00 75 1017.1
20260505015434 20 125 0.0 1.6 0.00 0.00 0.00 74 1017.1
20260505014931 20 124 0.0 1.6 0.00 0.00 0.00 74 1016.9
20260505014428 20 136 0.0 3.2 0.00 0.00 0.00 74 1017.0
20260505013925 20 149 0.0 1.6 0.00 0.00 0.00 74 1017.0
20260505013421 20 133 0.0 0.0 0.00 0.00 0.00 73 1017.0
20260505012920 20 122 1.6 4.8 0.00 0.00 0.00 73 1016.9
20260505012417 21 125 0.0 3.2 0.00 0.00 0.00 73 1016.8
20260505011913 20 127 0.0 1.6 0.00 0.00 0.00 73 1016.7
20260505011410 21 131 0.0 0.0 0.00 0.00 0.00 72 1016.7
20260505010906 21 131 0.0 0.0 0.00 0.00 0.00 72 1016.8
20260505010402 21 128 0.0 0.0 0.00 0.00 0.00 71 1016.8
20260505005858 21 136 0.0 0.0 0.00 0.00 0.00 71 1016.8
20260505005355 21 123 0.0 0.0 0.00 0.00 0.00 70 1016.9
20260505004853 21 115 0.0 0.0 0.00 0.00 0.00 70 1016.6
20260505004349 21 109 0.0 0.0 0.00 0.00 0.00 69 1016.6
20260505003847 21 129 0.0 0.0 0.00 0.00 0.00 69 1016.5
20260505003344 21 116 0.0 0.0 0.00 0.00 0.00 68 1016.3
20260505002839 21 115 3.2 4.8 0.00 0.00 0.00 68 1016.4
20260505002337 21 125 1.6 3.2 0.00 0.00 0.00 68 1016.4
20260505001835 22 149 1.6 3.2 0.00 0.00 0.00 67 1016.2
20260505001332 22 131 0.0 1.6 0.00 0.00 0.00 67 1016.1
20260505000829 22 124 0.0 3.2 0.00 0.00 0.00 67 1016.2
20260505000327 22 123 0.0 4.8 0.00 0.00 0.00 66 1016.3
20260504235823 22 119 1.6 1.6 0.00 0.00 0.00 66 1016.2
20260504235320 22 112 1.6 3.2 0.00 0.00 0.00 65 1016.1
20260504234817 22 95 4.8 6.4 0.00 0.00 0.00 65 1016.0
20260504234315 22 85 4.8 16.1 0.00 0.00 0.00 64 1015.9
20260504233811 22 152 6.4 11.3 0.00 0.00 0.00 64 1016.0
20260504233306 23 138 9.7 12.9 0.00 0.00 0.00 63 1016.0
20260504232803 23 136 3.2 9.7 0.00 0.00 0.00 63 1016.0
20260504232301 23 171 3.2 12.9 0.00 0.00 0.00 62 1016.0
20260504231757 23 137 3.2 9.7 0.00 0.00 0.00 62 1015.9
20260504231254 23 196 3.2 6.4 0.00 0.00 0.00 62 1015.9
20260504230750 23 149 6.4 6.4 0.00 0.00 0.00 61 1015.8
20260504230248 23 115 4.8 12.9 0.00 0.00 0.00 62 1015.6
20260504225747 23 132 3.2 11.3 0.00 0.00 0.00 61 1015.8
20260504225243 23 177 4.8 11.3 0.00 0.00 0.00 60 1015.7
20260504224740 23 136 11.3 16.1 0.00 0.00 0.00 60 1016.0
20260504224237 23 139 1.6 6.4 0.00 0.00 0.00 60 1016.0
20260504223733 23 125 6.4 11.3 0.00 0.00 0.00 59 1015.8
20260504223229 23 160 3.2 14.5 0.00 0.00 0.00 60 1015.8
20260504222726 24 158 9.7 17.7 0.00 0.00 0.00 59 1015.9
20260504222223 25 192 12.9 20.9 0.00 0.00 0.00 57 1015.7
20260504221720 24 118 0.0 9.7 0.00 0.00 0.00 58 1015.9
20260504221217 24 162 1.6 9.7 0.00 0.00 0.00 58 1015.9
20260504220714 24 175 11.3 17.7 0.00 0.00 0.00 58 1015.8
20260504220212 24 96 4.8 20.9 0.00 0.00 0.00 57 1015.7
20260504215708 25 150 4.8 4.8 0.00 0.00 0.00 56 1015.9
20260504215205 25 197 6.4 9.7 0.00 0.00 0.00 57 1015.9
20260504214700 24 120 9.7 17.7 0.00 0.00 0.00 57 1016.0
20260504214157 24 191 6.4 20.9 0.00 0.00 0.00 57 1015.9
20260504213654 25 120 8.0 11.3 0.00 0.00 0.00 56 1015.8
20260504213151 25 160 9.7 22.5 0.00 0.00 0.00 55 1015.8
20260504212647 25 137 6.4 12.9 0.00 0.00 0.00 55 1015.6
20260504212144 25 182 12.9 14.5 0.00 0.00 0.00 55 1015.7
20260504211642 25 94 3.2 6.4 0.00 0.00 0.00 56 1015.8
20260504211137 25 136 4.8 9.7 0.00 0.00 0.00 56 1016.0
20260504210636 25 124 3.2 12.9 0.00 0.00 0.00 55 1015.8
20260504210132 25 128 4.8 14.5 0.00 0.00 0.00 56 1015.8
20260504205629 25 161 6.4 17.7 0.00 0.00 0.00 54 1016.0
20260504205126 25 158 9.7 11.3 0.00 0.00 0.00 55 1016.0
20260504204625 25 168 9.7 16.1 0.00 0.00 0.00 55 1016.0
20260504204124 25 140 4.8 9.7 0.00 0.00 0.00 54 1015.7
20260504203622 25 163 3.2 12.9 0.00 0.00 0.00 54 1015.8
20260504203120 25 167 3.2 16.1 0.00 0.00 0.00 55 1015.9
20260504202620 25 97 8.0 12.9 0.00 0.00 0.00 54 1016.2
20260504202117 25 152 12.9 16.1 0.00 0.00 0.00 53 1015.9
20260504201614 26 123 4.8 14.5 0.00 0.00 0.00 52 1016.1
20260504201111 26 133 0.0 6.4 0.00 0.00 0.00 52 1016.0
20260504200608 25 156 14.5 20.9 0.00 0.00 0.00 53 1016.3
20260504200104 25 173 6.4 9.7 0.00 0.00 0.00 53 1016.2
20260504195601 25 178 3.2 16.1 0.00 0.00 0.00 53 1016.3
20260504195057 25 115 3.2 12.9 0.00 0.00 0.00 54 1016.3